THORAD AGENA D DEB

Satellite information

Favourite Embed

Satellite Type and Status

DEBRISIN ORBIT

Key statistics

Satellite THORAD AGENA D DEB at a glance.

Uptime

20283

Days in orbit

Revolutions

≈ 14.4

Per day

Orbit

SSO

Sun Synchronous Orbit

Inclination

99.1

Latest

Satellite identification and parameters

Extended collection of information and parameters for THORAD AGENA D DEB.

Object identification

Identified? True

Debris? True

Object name: THORAD AGENA D DEB

International designator: 1970-025SH

Object number (NORAD): 42527

Object ID (CCSDS): 42527

Country: UNITED STATES OF AMERICA (US)

Current information (Y/N): Y

RCS size: SMALL

Orbital parameters

Period: 100.079 minutes

Inclination: 99.1204 deg

SMA: 7140.404 km

Apoapsis: 780.571 km

Periapsis: 743.967 km

RAAN: 226.3219 deg

Eccentricy: 0.0025631

Argument of periapsis: 321.1582 deg

Mean anomaly: 38.7761 deg

Mean motion: 14.38860161 rev/day

Mean motion (dot): 0.00009555 rev/day2

B* drag term: 0.0031046 1/REarth

Two-line elements (TLE)

Creation date: Oct. 17, 2025, 6:56 a.m.

Reference frame: TEME

Reference center: EARTH

Epoch: Oct. 16, 2025, 1:36 p.m. UTC

TLE line 0: 0 THORAD AGENA D DEB

TLE line 1: 1 42527U 70025SH 25289.56674876 .00009555 00000-0 31046-2 0 9999

TLE line 2: 2 42527 99.1204 226.3219 0025631 321.1582 38.7761 14.38860161616318

Live tracking on map

Real-time ground track for satellite THORAD AGENA D DEB.

In-orbit conjunctions

A list of the most updated potential collisions computed for object THORAD AGENA D DEB.

Target Orbit TCA Probability of collision Miss distance Type
ITAMSAT SSO 2025-04-18 06:42:06 0.0003639918 428.0 (m) PAYLOAD
IRIDIUM 36 LEO 2025-04-13 23:49:34 0.001193203 184.0 (m) PAYLOAD

Associated space launch

Meteorological research and development satellite

THORAD AGENA D DEB was lifted into orbit during the mission ‘Thorad SLV-2G Agena D | Nimbus 4’, on board a Thorad SLV-2G Agena D space rocket.

The launch took place on April 8, 1970, 8:17 a.m. from Space Launch Complex 2E.

For more information about the launch, click the button.

Launch to space Thorad SLV-2G Agena D | Nimbus 4
Thorad SLV-2G Agena D | Nimbus 4

Agency: N/A

Status: Launch Successful

Launch date: April 8, 1970, 8:17 a.m. UTC

Rocket: Thorad SLV-2G Agena D

Launch pad: Space Launch Complex 2E

Location: Vandenberg SFB, CA, USA

...

Latest news about this satellite

There are no fresh news available about this satellite. Check back as we update our databases every day.


Newsletter sign-up

Weekly statistics, charts and insights to help you stay on top of the space industry.